Tracking 25703 objects as of 2-Jul-2022
HD Live streaming from Space Station
objects crossing your sky now

NOAA 16 DEB

Track NOAA 16 DEB now!
10-day predictions


NORAD ID: 41148
Int'l Code: 2000-055CF
Perigee: 678.0 km
Apogee: 793.4 km
Inclination: 98.9 °
Period: 99.4 minutes
Semi major axis: 7106 km
RCS: Unknown
Launch date: September 21, 2000
Source: United States (US)
Launch site: AIR FORCE WESTERN TEST RANGE (AFWTR)

Note: This is SATELLITE DEBRIS
aabbcc
Your satellite tracking list
Your tracking list is empty




NASA's NSSDC Master Catalog

Two Line Element Set (TLE):
1 41148U 00055CF  22182.78667763  .00005394  00000-0  13730-2 0  9990
2 41148  98.8663  10.3735 0081218 174.4641 185.7468 14.49111382346169
Source of the keplerian elements: AFSPC